DW1347 Weather Reports


Display with metric or nautical units.
time (UTC)temp
F
wind
direction
speed
MPH
gust
MPH
rain 1hr
in
rain 24hr
in
rain mn
in
humidity
%
barometer
mb
20260901220034 71 18 2.0 3.0 0.00 0.04 0.04 44 1029.5
20260901215533 72 347 5.0 6.0 0.00 0.04 0.04 43 1029.8
20260901215032 72 157 1.0 2.0 0.00 0.04 0.04 44 1029.5
20260901214531 71 2 3.0 3.0 0.00 0.04 0.04 44 1029.8
20260901214026 72 240 1.0 1.0 0.00 0.04 0.04 43 1029.5
20260901213520 73 23 7.0 8.0 0.00 0.04 0.04 43 1029.7
20260901213020 72 28 5.0 6.0 0.00 0.04 0.04 44 1029.8
20260901212514 72 29 3.0 3.0 0.00 0.04 0.04 44 1029.8
20260901212011 72 359 3.0 3.0 0.00 0.04 0.04 43 1029.8
20260901211506 73 48 3.0 5.0 0.00 0.04 0.04 43 1029.4
20260901211002 74 214 1.0 2.0 0.00 0.04 0.04 43 1029.7
20260901210457 72 192 3.0 5.0 0.00 0.04 0.04 45 1029.8
20260901205953 73 339 5.0 6.0 0.00 0.04 0.04 44 1029.5
20260901205449 73 320 3.0 3.0 0.00 0.04 0.04 44 1029.7
20260901204943 73 247 3.0 3.0 0.00 0.04 0.04 44 1029.7
20260901204440 74 302 4.0 6.0 0.00 0.04 0.04 43 1029.5
20260901203939 73 241 2.0 3.0 0.00 0.04 0.04 42 1029.7
20260901203434 74 58 6.0 7.0 0.00 0.04 0.04 42 1029.5
20260901202929 73 344 2.0 2.0 0.00 0.04 0.04 43 1029.8
20260901202430 73 11 3.0 5.0 0.00 0.04 0.04 43 1029.7
20260901201926 73 4 4.0 6.0 0.00 0.04 0.04 43 1029.7
20260901201426 73 153 0.0 1.0 0.00 0.04 0.04 43 1030.0
20260901200920 73 245 1.0 2.0 0.00 0.04 0.04 40 1029.9
20260901200415 72 74 3.0 6.0 0.00 0.04 0.04 40 1029.8
20260901195914 73 32 1.0 2.0 0.00 0.04 0.04 42 1029.7
20260901195413 73 171 2.0 3.0 0.00 0.04 0.04 43 1030.0
20260901194908 72 190 0.0 1.0 0.00 0.04 0.04 43 1029.8
20260901194402 73 287 5.0 7.0 0.00 0.04 0.04 43 1030.0
20260901193858 74 331 2.0 2.0 0.00 0.04 0.04 37 1029.9
20260901193352 73 216 1.0 1.0 0.00 0.04 0.04 36 1029.9
20260901192852 73 52 0.0 1.0 0.00 0.04 0.04 39 1029.9
20260901192348 73 215 3.0 3.0 0.00 0.04 0.04 36 1030.2
20260901191844 73 220 1.0 2.0 0.00 0.04 0.04 39 1029.9
20260901191339 73 317 3.0 3.0 0.00 0.04 0.04 39 1029.9
20260901190835 73 190 1.0 1.0 0.00 0.04 0.04 39 1030.2
20260901190335 73 276 4.0 5.0 0.00 0.04 0.04 39 1030.2
20260901185833 73 130 3.0 5.0 0.00 0.04 0.04 38 1030.2
20260901185332 73 221 0.0 1.0 0.00 0.04 0.04 40 1030.0
20260901184828 76 264 3.0 3.0 0.00 0.04 0.04 37 1030.3
20260901184323 74 228 0.0 0.0 0.00 0.04 0.04 36 1030.5
20260901183819 72 210 5.0 6.0 0.00 0.04 0.04 38 1030.3
20260901183318 73 250 1.0 2.0 0.00 0.04 0.04 36 1030.5
20260901182815 73 272 6.0 7.0 0.00 0.04 0.04 39 1030.7
20260901182314 74 184 2.0 3.0 0.00 0.04 0.04 37 1030.8
20260901181809 74 103 0.0 0.0 0.00 0.04 0.04 36 1030.3
20260901181303 75 163 4.0 6.0 0.00 0.04 0.04 36 1030.4
20260901180757 74 203 1.0 2.0 0.00 0.04 0.04 38 1030.8
20260901180256 74 214 2.0 2.0 0.00 0.04 0.04 42 1030.8
20260901175755 73 236 1.0 2.0 0.00 0.04 0.04 38 1030.7
20260901175250 72 225 1.0 2.0 0.00 0.04 0.04 41 1030.9
20260901174745 71 191 1.0 1.0 0.00 0.04 0.04 41 1030.9
20260901174241 72 180 2.0 3.0 0.00 0.04 0.04 42 1031.0
20260901173737 69 93 3.0 5.0 0.00 0.04 0.04 41 1031.2
20260901173231 70 213 1.0 1.0 0.00 0.04 0.04 41 1031.2
20260901172728 71 248 1.0 2.0 0.00 0.04 0.04 42 1030.9
20260901172226 70 177 0.0 0.0 0.00 0.04 0.04 42 1031.2
20260901171725 69 210 2.0 3.0 0.00 0.04 0.04 47 1031.2
20260901171224 69 211 1.0 2.0 0.00 0.04 0.04 45 1031.2
20260901170723 69 227 3.0 3.0 0.00 0.04 0.04 47 1031.3
20260901170218 69 179 1.0 2.0 0.00 0.04 0.04 43 1031.0
20260901165717 70 213 0.0 1.0 0.00 0.04 0.04 49 1031.3
20260901165212 71 141 1.0 1.0 0.00 0.04 0.04 45 1031.0
20260901164708 71 208 0.0 0.0 0.00 0.04 0.04 44 1031.3
20260901164203 71 216 2.0 2.0 0.00 0.04 0.04 45 1031.3
20260901163658 70 216 2.0 3.0 0.00 0.04 0.04 45 1031.5
20260901163157 70 227 3.0 3.0 0.00 0.04 0.04 45 1031.0
20260901162653 70 191 5.0 7.0 0.00 0.04 0.04 44 1031.3
20260901162152 69 178 4.0 6.0 0.00 0.04 0.04 46 1031.0
20260901161651 68 200 1.0 2.0 0.00 0.04 0.04 50 1031.2
20260901161151 69 153 3.0 5.0 0.00 0.04 0.04 44 1031.4
20260901160648 69 186 3.0 3.0 0.00 0.04 0.04 45 1031.5
20260901160142 68 210 2.0 3.0 0.00 0.04 0.04 47 1031.2
20260901155641 67 165 2.0 2.0 0.00 0.04 0.04 49 1031.3
20260901155137 67 117 2.0 5.0 0.00 0.04 0.04 50 1031.2
20260901154632 68 108 6.0 7.0 0.00 0.04 0.04 45 1031.3
20260901154126 67 147 1.0 2.0 0.00 0.04 0.04 53 1031.5
20260901153622 67 214 0.0 1.0 0.00 0.04 0.04 48 1031.5
20260901153121 65 196 0.0 1.0 0.00 0.04 0.04 54 1031.3
20260901152617 64 152 2.0 2.0 0.00 0.04 0.04 55 1031.5
20260901152115 63 121 4.0 6.0 0.00 0.04 0.04 52 1031.5
20260901151611 62 171 3.0 3.0 0.00 0.04 0.04 59 1031.5
20260901151110 59 216 1.0 2.0 0.00 0.04 0.04 66 1031.4
20260901150609 57 237 0.0 0.0 0.00 0.04 0.04 82 1031.4
20260901150108 54 169 1.0 1.0 0.00 0.04 0.04 92 1031.2
20260901145601 54 203 0.0 1.0 0.00 0.04 0.04 96 1031.4
20260901145100 54 211 0.0 0.0 0.00 0.04 0.04 97 1031.4
20260901144556 53 239 1.0 1.0 0.00 0.04 0.04 97 1031.2
20260901144050 53 204 0.0 0.0 0.00 0.04 0.04 98 1031.7
20260901143541 52 237 0.0 0.0 0.00 0.04 0.04 99 1031.4
20260901143037 52 233 1.0 1.0 0.00 0.04 0.04 99 1031.4
20260901142531 51 216 0.0 0.0 0.00 0.04 0.04 99 1031.2
20260901142026 51 165 1.0 1.0 0.00 0.04 0.04 99 1031.2
20260901141526 51 210 0.0 0.0 0.00 0.04 0.04 99 1031.2
20260901141022 51 224 0.0 0.0 0.00 0.04 0.04 99 1031.3
20260901140520 51 189 1.0 1.0 0.00 0.04 0.04 99 1031.3
20260901140015 51 220 1.0 2.0 0.00 0.04 0.04 99 1031.3
20260901135514 51 207 0.0 0.0 0.00 0.04 0.04 99 1031.4
20260901135010 51 248 0.0 0.0 0.00 0.04 0.04 99 1031.0
20260901134506 50 208 0.0 0.0 0.00 0.04 0.04 99 1031.0
20260901134000 50 240 0.0 0.0 0.00 0.04 0.04 99 1031.3
20260901133459 50 197 1.0 1.0 0.00 0.04 0.04 99 1030.8
20260901132957 50 219 0.0 0.0 0.00 0.04 0.04 99 1030.9
20260901132452 50 219 0.0 0.0 0.00 0.04 0.04 99 1031.0
20260901131951 50 199 0.0 0.0 0.00 0.04 0.04 99 1030.8
20260901131450 50 197 0.0 0.0 0.00 0.04 0.04 99 1030.7
20260901130946 50 216 0.0 0.0 0.00 0.04 0.04 99 1030.5
20260901130441 50 208 0.0 0.0 0.00 0.04 0.04 99 1030.4
20260901125938 50 217 0.0 0.0 0.00 0.04 0.04 99 1030.7
20260901125439 49 215 0.0 0.0 0.00 0.04 0.04 99 1030.5
20260901124933 49 201 0.0 0.0 0.00 0.04 0.04 99 1030.3
20260901124428 49 201 0.0 0.0 0.00 0.04 0.04 99 1030.3
20260901123923 50 184 0.0 0.0 0.00 0.04 0.04 99 1029.8
20260901123418 50 217 0.0 0.0 0.00 0.04 0.04 99 1030.0
20260901122916 50 216 0.0 0.0 0.00 0.04 0.04 99 1030.0
20260901122411 49 188 0.0 0.0 0.00 0.04 0.04 99 1029.9
20260901121910 49 218 0.0 0.0 0.00 0.04 0.04 99 1030.2
20260901121405 50 224 0.0 0.0 0.00 0.04 0.04 99 1029.9
20260901120901 49 216 0.0 0.0 0.00 0.04 0.04 99 1029.7
20260901120400 49 221 0.0 0.0 0.00 0.04 0.04 99 1029.7
20260901115856 49 218 0.0 0.0 0.00 0.04 0.04 99 1029.9
20260901115356 49 188 0.0 0.0 0.00 0.04 0.04 99 1029.8
20260901114854 49 180 0.0 0.0 0.00 0.04 0.04 99 1029.9
20260901114349 49 221 0.0 0.0 0.00 0.04 0.04 99 1029.9
20260901113847 49 161 0.0 0.0 0.00 0.04 0.04 99 1030.2
20260901113346 50 235 0.0 0.0 0.00 0.04 0.04 99 1030.2
20260901112841 50 176 0.0 0.0 0.00 0.04 0.04 99 1029.8
20260901112336 49 205 0.0 0.0 0.00 0.04 0.04 99 1030.2
20260901111831 50 223 0.0 0.0 0.00 0.04 0.04 99 1029.9
20260901111329 49 218 0.0 0.0 0.00 0.04 0.04 99 1030.0
20260901110828 49 203 0.0 0.0 0.00 0.04 0.04 99 1030.2
20260901110324 49 219 0.0 0.0 0.00 0.04 0.04 99 1029.9
20260901105820 50 223 0.0 0.0 0.00 0.04 0.04 99 1029.9
20260901105320 50 204 0.0 0.0 0.00 0.04 0.04 99 1029.8
20260901104817 50 214 0.0 0.0 0.00 0.04 0.04 99 1030.3
20260901104312 50 203 0.0 0.0 0.00 0.04 0.04 99 1029.9
20260901103807 50 183 0.0 0.0 0.00 0.04 0.04 99 1030.3
20260901103306 50 222 0.0 0.0 0.00 0.04 0.04 99 1030.2
20260901102801 50 187 0.0 0.0 0.00 0.04 0.04 99 1030.3
20260901102256 50 237 0.0 0.0 0.00 0.04 0.04 99 1030.2
20260901101752 50 219 1.0 1.0 0.00 0.04 0.04 99 1030.2
20260901101251 50 230 0.0 0.0 0.00 0.04 0.04 99 1030.4
20260901100751 50 226 0.0 0.0 0.00 0.04 0.04 99 1030.7
20260901100246 50 144 2.0 2.0 0.00 0.04 0.04 99 1030.3
20260901095744 50 183 2.0 2.0 0.00 0.04 0.04 99 1030.5
20260901095242 50 201 0.0 0.0 0.00 0.04 0.04 99 1030.4
20260901094737 50 189 0.0 1.0 0.00 0.04 0.04 99 1030.8
20260901094232 50 190 1.0 2.0 0.00 0.04 0.04 99 1030.8
20260901093727 50 186 0.0 0.0 0.00 0.04 0.04 99 1030.8
20260901093225 50 244 0.0 0.0 0.00 0.04 0.04 99 1030.8
20260901092722 51 220 0.0 0.0 0.00 0.04 0.04 99 1030.7
20260901092218 51 214 0.0 0.0 0.00 0.04 0.04 99 1030.7
20260901091713 51 224 0.0 1.0 0.00 0.04 0.04 99 1031.0
20260901091208 51 202 0.0 0.0 0.00 0.04 0.04 99 1030.8
20260901090702 51 219 0.0 0.0 0.00 0.04 0.04 99 1030.9
20260901090158 51 221 0.0 0.0 0.00 0.04 0.04 99 1030.9
20260901085654 51 196 0.0 0.0 0.00 0.04 0.04 99 1031.0
20260901085149 51 219 0.0 0.0 0.00 0.04 0.04 99 1030.8
20260901084645 51 156 1.0 2.0 0.00 0.04 0.04 99 1030.7
20260901084142 51 217 0.0 0.0 0.00 0.04 0.04 99 1031.2
20260901083641 51 221 0.0 0.0 0.00 0.04 0.04 99 1031.0
20260901083140 51 226 0.0 0.0 0.00 0.04 0.04 99 1030.8
20260901082634 51 195 0.0 0.0 0.00 0.04 0.04 99 1031.2
20260901082130 52 213 0.0 0.0 0.00 0.04 0.04 99 1031.3
20260901081625 52 209 0.0 0.0 0.00 0.04 0.04 99 1031.3
20260901081120 52 216 0.0 0.0 0.00 0.04 0.04 99 1031.4
20260901080620 52 196 1.0 1.0 0.00 0.04 0.04 99 1031.3
20260901080118 52 219 0.0 0.0 0.00 0.04 0.04 99 1031.7
20260901075614 52 222 0.0 0.0 0.00 0.04 0.04 99 1031.4
20260901075114 52 206 0.0 0.0 0.00 0.04 0.04 99 1031.7
20260901074614 52 221 0.0 1.0 0.00 0.04 0.04 99 1031.8
20260901074114 52 206 1.0 1.0 0.00 0.04 0.04 99 1031.9
20260901073611 52 201 0.0 0.0 0.00 0.04 0.04 99 1031.8
20260901073105 52 215 0.0 0.0 0.00 0.04 0.04 99 1031.8
20260901072601 52 219 0.0 0.0 0.00 0.04 0.04 99 1031.8
20260901072055 52 237 1.0 1.0 0.00 0.04 0.04 99 1032.1
20260901071555 52 183 2.0 2.0 0.00 0.04 0.04 99 1031.5
20260901071055 52 201 0.0 0.0 0.00 0.04 0.04 99 1031.9
20260901070549 52 104 1.0 2.0 0.00 0.04 0.04 99 1031.9
20260901070044 52 227 0.0 0.0 0.00 0.04 0.04 99 1031.4
20260901065538 52 211 0.0 0.0 0.00 0.04 0.04 99 1031.9
20260901065033 52 222 0.0 0.0 0.00 0.04 0.04 99 1032.1
20260901064531 52 188 0.0 0.0 0.00 0.04 0.04 99 1032.2
20260901064027 52 224 0.0 0.0 0.07 0.04 0.04 99 1032.2
20260901063524 52 222 0.0 0.0 0.19 0.04 0.04 99 1032.1
20260901063019 52 260 1.0 2.0 0.17 0.03 0.03 99 1032.6
20260901062515 52 232 1.0 2.0 0.05 0.01 0.01 99 1032.6
20260901062011 52 228 1.0 1.0 0.00 0.00 0.00 99 1032.1
20260901061507 52 224 0.0 0.0 0.00 0.00 0.00 99 1031.9
20260901061006 52 215 0.0 0.0 0.00 0.00 0.00 99 1031.8
20260901060502 52 215 0.0 0.0 0.00 0.00 0.00 99 1032.1
20260901060002 52 221 0.0 0.0 0.00 0.07 0.07 99 1031.9
20260901055458 52 212 2.0 2.0 0.00 0.07 0.07 99 1032.1
20260901054954 52 235 0.0 0.0 0.07 0.07 0.07 99 1032.1
20260901054451 52 188 0.0 0.0 0.07 0.07 0.07 99 1032.2
20260901053947 52 170 2.0 2.0 0.00 0.06 0.06 99 1032.2
20260901053442 52 204 0.0 0.0 0.00 0.06 0.06 99 1032.6
20260901052938 51 218 0.0 0.0 0.00 0.06 0.06 99 1031.9
20260901052433 51 188 0.0 0.0 0.00 0.06 0.06 99 1031.9
20260901051931 51 220 0.0 0.0 0.00 0.06 0.06 99 1031.9
20260901051427 52 186 1.0 1.0 0.00 0.06 0.06 99 1031.7
20260901050921 52 213 0.0 0.0 0.00 0.06 0.06 99 1032.2
20260901050418 52 214 0.0 0.0 0.00 0.06 0.06 99 1031.9
20260901045917 52 205 0.0 0.0 0.00 0.06 0.06 99 1032.1
20260901045412 52 209 0.0 0.0 0.00 0.06 0.06 99 1032.6
20260901044907 52 201 0.0 1.0 0.00 0.06 0.06 99 1032.2
20260901044402 52 226 0.0 0.0 0.00 0.06 0.06 99 1032.2
20260901043858 52 221 0.0 0.0 0.00 0.06 0.06 99 1032.2
20260901043354 52 221 0.0 0.0 0.00 0.06 0.06 99 1032.1
20260901042849 52 195 1.0 1.0 0.00 0.06 0.06 99 1032.3
20260901042343 52 202 0.0 1.0 0.00 0.06 0.06 99 1032.4
20260901041838 53 219 0.0 0.0 0.00 0.06 0.06 99 1032.2
20260901041333 52 222 0.0 0.0 0.00 0.06 0.06 99 1032.2
20260901040828 53 226 1.0 2.0 0.00 0.06 0.06 99 1032.3
20260901040327 53 209 0.0 1.0 0.00 0.06 0.06 99 1032.3
20260901035826 53 214 1.0 1.0 0.00 0.06 0.06 99 1032.4
20260901035325 53 199 1.0 1.0 0.00 0.06 0.06 99 1032.4
20260901034824 53 159 1.0 1.0 0.00 0.06 0.06 99 1031.9
20260901034320 54 174 1.0 1.0 0.00 0.06 0.06 99 1032.4
20260901033819 54 213 1.0 1.0 0.00 0.06 0.06 99 1032.2
20260901033318 54 211 2.0 2.0 0.00 0.06 0.06 99 1032.2
20260901032818 54 186 2.0 2.0 0.00 0.06 0.06 99 1032.4
20260901032317 54 198 1.0 2.0 0.00 0.06 0.06 99 1032.3
20260901031812 54 178 2.0 2.0 0.00 0.06 0.06 99 1032.1
20260901031308 54 15 2.0 3.0 0.00 0.06 0.06 99 1031.8
20260901030807 54 243 3.0 3.0 0.00 0.06 0.06 99 1031.7
20260901030303 55 237 3.0 3.0 0.00 0.06 0.06 99 1031.8
20260901025802 54 224 0.0 0.0 0.00 0.06 0.06 99 1032.1
20260901025257 54 208 0.0 0.0 0.00 0.06 0.06 99 1032.1
20260901024752 54 184 1.0 2.0 0.00 0.06 0.06 99 1032.2
20260901024251 54 234 1.0 1.0 0.05 0.06 0.06 99 1032.6
20260901023749 54 176 1.0 1.0 0.05 0.06 0.06 98 1032.8
20260901023244 54 219 0.0 0.0 0.07 0.05 0.05 98 1033.2
20260901022740 55 179 1.0 1.0 0.07 0.05 0.05 97 1033.2
20260901022235 55 184 2.0 2.0 0.07 0.04 0.04 96 1033.3
20260901021730 56 174 1.0 1.0 0.12 0.04 0.04 95 1033.2
20260901021226 56 203 1.0 1.0 0.12 0.03 0.03 92 1033.4
20260901020721 58 189 2.0 3.0 0.12 0.02 0.02 89 1033.3
20260901020216 59 181 4.0 7.0 0.05 0.01 0.01 83 1033.2
20260901015711 60 219 0.0 1.0 0.00 0.00 0.00 84 1032.7
20260901015206 60 211 1.0 1.0 0.00 0.00 0.00 82 1032.6
20260901014701 60 219 0.0 0.0 0.00 0.00 0.00 81 1032.3
20260901014157 60 215 0.0 0.0 0.00 0.00 0.00 81 1032.2
20260901013653 60 224 0.0 0.0 0.00 0.00 0.00 78 1032.2
20260901013148 60 213 1.0 1.0 0.00 0.00 0.00 79 1031.9
20260901012642 60 214 1.0 1.0 0.00 0.00 0.00 79 1032.1
20260901012138 60 215 0.0 0.0 0.00 0.00 0.00 81 1032.2
20260901011634 61 216 0.0 1.0 0.00 0.00 0.00 79 1031.7
20260901011132 61 196 3.0 5.0 0.00 0.00 0.00 75 1031.4
20260901010627 65 160 2.0 2.0 0.00 0.00 0.00 63 1031.0
20260901010127 65 172 2.0 2.0 0.00 0.00 0.00 61 1031.3
20260901005626 66 163 1.0 2.0 0.00 0.00 0.00 59 1031.0
20260901005122 67 192 2.0 2.0 0.00 0.00 0.00 57 1030.7
20260901004621 67 71 2.0 3.0 0.00 0.00 0.00 56 1030.9
20260901004116 68 206 1.0 2.0 0.00 0.00 0.00 55 1031.0
20260901003611 69 8 4.0 7.0 0.00 0.00 0.00 52 1030.7
20260901003110 69 9 3.0 5.0 0.00 0.00 0.00 49 1030.4
20260901002610 70 256 1.0 2.0 0.00 0.00 0.00 48 1030.4
20260901002104 70 8 4.0 6.0 0.00 0.00 0.00 48 1030.7
20260901001559 70 309 1.0 2.0 0.00 0.00 0.00 48 1030.5
20260901001054 70 203 1.0 2.0 0.00 0.00 0.00 47 1030.7
20260901000549 70 183 1.0 1.0 0.00 0.00 0.00 47 1030.4
20260901000045 71 206 0.0 1.0 0.00 0.00 0.00 46 1030.9
20260831235538 71 192 0.0 0.0 0.00 0.00 0.00 46 1030.7
20260831235029 71 17 4.0 5.0 0.00 0.00 0.00 45 1030.7
20260831234522 71 271 2.0 3.0 0.00 0.00 0.00 44 1030.3
20260831234019 71 206 1.0 1.0 0.00 0.00 0.00 45 1030.5
20260831233513 71 219 0.0 0.0 0.00 0.00 0.00 46 1030.4
20260831233009 71 173 0.0 0.0 0.00 0.00 0.00 47 1030.5
20260831232504 71 219 0.0 0.0 0.00 0.00 0.00 46 1030.4
20260831232000 71 199 1.0 1.0 0.00 0.00 0.00 47 1030.4
20260831231456 71 262 3.0 3.0 0.00 0.00 0.00 46 1030.5
20260831230951 71 258 1.0 2.0 0.00 0.00 0.00 47 1030.7
20260831230446 72 66 3.0 6.0 0.00 0.00 0.00 45 1030.4
20260831225941 72 230 1.0 2.0 0.00 0.00 0.00 45 1030.4
20260831225437 72 220 0.0 0.0 0.00 0.00 0.00 44 1030.5
20260831224932 72 196 3.0 5.0 0.00 0.00 0.00 44 1030.7
20260831224431 72 337 2.0 2.0 0.00 0.00 0.00 44 1030.8
20260831223926 73 321 2.0 3.0 0.00 0.00 0.00 44 1030.5
20260831223422 72 205 0.0 0.0 0.00 0.00 0.00 45 1030.7
20260831222918 72 54 4.0 6.0 0.00 0.00 0.00 45 1030.7
20260831222414 72 201 1.0 1.0 0.00 0.00 0.00 46 1030.9
20260831221908 73 128 2.0 3.0 0.00 0.00 0.00 45 1030.7
20260831221404 73 347 3.0 5.0 0.00 0.00 0.00 45 1030.7
20260831220859 73 139 4.0 5.0 0.00 0.00 0.00 44 1030.7